Flag for China Weather past 2 weeks in Kashgar, Xinjiang, China

Now
23 °F

Ice fog.


Feels Like: 23 °F
Forecast: 24 / 32 °F
Wind: No wind

Location: Kashi Airport

Current Time: Feb 2, 2015 at 8:35:28 AM

Latest Report: Feb 2, 2015 at 8:00 AM


Visibility: 4 mi

Pressure: 30.18 "Hg

Humidity: 86%

Dew point: 19 °F

Location of KashgarLocation

Historic Weather in Kashgar — Graph

°F

Kashgar temperature yesterday

Maximum temperature yesterday: 25 °F (at 4:00 PM)
Minimum temperature yesterday: 19 °F (at 11:00 AM)
Average temperature yesterday: 22 °F

Past Weeks' High & Low Weather Summary

 TemperatureHumidityPressure
High41 °F (Jan 23, 6:00 PM)100% (Jan 29, 5:00 AM)30.33 "Hg (Jan 29, 5:00 AM)
Low18 °F (Jan 30, 10:00 AM)22% (Jan 25, 6:00 PM)29.89 "Hg (Jan 23, 5:00 PM)
Average26 °F64%30.14 "Hg
* Reported Jan 18 7:00 AM — Feb 2 7:00 AM, Kashgar, Weather by CustomWeather, © 2014

Note: Actual official high and low records may vary slightly from our data, if they occured in-between our weather recording intervals... More about our weather records

Advertising

Kashgar weather history for previous 24 hours

 ConditionsComfort  
Time TempWeatherWind HumidityBarometerVisibility
7:00 AM
Feb 2
23 °FIce fog.No wind86%30.18 "Hg4 mi
6:00 AM23 °FOvercast.No wind86%30.15 "Hg4 mi
5:00 AM23 °FOvercast.No wind86%30.15 "Hg4 mi
4:00 AM23 °FCold.3 mph86%30.15 "HgN/A
3:00 AM23 °FCold.3 mph86%30.15 "HgN/A
2:00 AM23 °FCold.1 mph86%30.12 "HgN/A
1:00 AM23 °FPassing clouds.3 mph86%30.09 "Hg4 mi
12:00 AM21 °FIce fog.3 mph93%30.09 "Hg3 mi
11:00 PM
Feb 1
23 °FIce fog.1 mph86%30.09 "Hg3 mi
10:00 PM25 °FOvercast.3 mph80%30.07 "Hg4 mi
9:00 PM25 °FIce fog.3 mph80%30.04 "Hg3 mi
8:00 PM25 °FOvercast.No wind80%30.01 "Hg4 mi
7:00 PM25 °FOvercast.No wind80%30.01 "Hg4 mi
6:00 PM25 °FOvercast.No wind80%29.98 "Hg4 mi
5:00 PM25 °FPartly sunny.No wind80%30.01 "Hg4 mi
4:00 PM25 °FPartly sunny.No wind86%30.01 "Hg4 mi
3:00 PM23 °FIce fog.1 mph86%30.04 "Hg3 mi
2:00 PM21 °FIce fog.3 mph93%30.04 "Hg3 mi
1:00 PM21 °FIce fog.No wind93%30.07 "Hg2 mi
12:00 PM21 °FLight snow. Ice fog.3 mph93%30.04 "Hg1 mi
11:00 AM19 °FLight snow. Ice fog.3 mph93%30.04 "Hg2 mi
10:00 AM21 °FLight snow. Ice fog.1 mph93%30.04 "Hg1 mi
9:00 AM21 °FLight snow. Ice fog.1 mph93%30.01 "Hg1 mi
8:00 AM21 °FLight snow. Ice fog.No wind93%30.04 "Hg2 mi
Weather by CustomWeather, © 2014

See weather overviewHow to use our weather pages